GLT1 KCRQ-KCVG

Flight info

Callsign GLT1
Flight time N/A
Altitude 39000
Route JLI HRRBR PAYSO LOWBO KENTO Q176 BUM DAAVE SARGO5
Aircraft C750/M-VGDW/C

Departure

Time 2026-04-25 03:44
Airport McClellan-Palomar Airport (KCRQ)

Arrival

Time N/A
Airport Cincinnati Northern Kentucky International Airport (KCVG)
Time Latitude Longitude Altitude Speed Heading
2026-04-25 03:30 33.12729 -117.27902 328 ft 0 kts 259°
2026-04-25 03:41 33.12727 -117.27913 328 ft 4 kts 258°
2026-04-25 03:41 33.12740 -117.27950 326 ft 5 kts 354°
2026-04-25 03:41 33.12758 -117.27909 328 ft 8 kts 77°
2026-04-25 03:42 33.12772 -117.27819 328 ft 14 kts 79°
2026-04-25 03:42 33.12793 -117.27698 328 ft 14 kts 79°
2026-04-25 03:42 33.12811 -117.27585 327 ft 13 kts 79°
2026-04-25 03:42 33.12827 -117.27484 328 ft 12 kts 79°
2026-04-25 03:43 33.12841 -117.27395 326 ft 10 kts 78°
2026-04-25 03:43 33.12854 -117.27320 327 ft 8 kts 79°
2026-04-25 03:43 33.12884 -117.27266 327 ft 10 kts 49°
2026-04-25 03:43 33.12936 -117.27230 329 ft 2 kts 351°
2026-04-25 03:44 33.12942 -117.27284 329 ft 14 kts 259°
2026-04-25 03:44 33.12875 -117.27699 329 ft 101 kts 259°
2026-04-25 03:44 33.12699 -117.28779 457 ft 146 kts 258°
2026-04-25 03:44 33.12477 -117.29938 1147 ft 146 kts 256°
2026-04-25 03:45 33.12240 -117.31179 1612 ft 166 kts 256°
2026-04-25 03:45 33.11948 -117.32683 2010 ft 200 kts 257°
2026-04-25 03:45 33.11604 -117.34437 2500 ft 228 kts 255°
2026-04-25 03:45 33.11202 -117.36378 3010 ft 256 kts 256°
2026-04-25 03:46 33.10780 -117.38449 4017 ft 255 kts 256°
2026-04-25 03:46 33.10356 -117.40521 4919 ft 260 kts 256°
2026-04-25 03:46 33.09920 -117.42629 5782 ft 260 kts 256°
2026-04-25 03:46 33.09621 -117.44038 6263 ft 267 kts 256°
2026-04-25 03:47 33.09166 -117.46208 7210 ft 269 kts 256°
2026-04-25 03:47 33.08445 -117.49065 8358 ft 277 kts 244°
2026-04-25 03:47 33.07214 -117.50844 9237 ft 282 kts 221°
2026-04-25 03:47 33.05450 -117.51884 10127 ft 288 kts 197°
2026-04-25 03:48 33.04075 -117.52068 10431 ft 305 kts 181°
2026-04-25 03:48 33.01952 -117.51286 10570 ft 340 kts 152°
2026-04-25 03:48 33.00235 -117.49268 10744 ft 367 kts 125°
2026-04-25 03:48 32.99385 -117.46353 11176 ft 381 kts 97°
2026-04-25 03:49 32.99619 -117.43213 11829 ft 384 kts 77°
2026-04-25 03:49 33.00411 -117.40162 12436 ft 389 kts 70°
2026-04-25 03:49 33.01299 -117.37087 13035 ft 394 kts 71°
2026-04-25 03:49 33.01975 -117.33898 13587 ft 400 kts 78°
2026-04-25 03:50 33.02407 -117.30623 14180 ft 403 kts 82°
2026-04-25 03:50 33.02824 -117.27273 14735 ft 409 kts 80°
2026-04-25 03:50 33.03403 -117.23941 15296 ft 413 kts 77°
2026-04-25 03:50 33.04042 -117.20585 15840 ft 418 kts 77°
2026-04-25 03:51 33.04600 -117.17160 16394 ft 423 kts 79°
2026-04-25 03:51 33.05113 -117.13723 16966 ft 428 kts 79°
2026-04-25 03:51 33.05682 -117.10221 17531 ft 433 kts 78°
2026-04-25 03:51 33.06293 -117.06686 18104 ft 437 kts 78°
2026-04-25 03:52 33.06885 -117.03107 18699 ft 442 kts 78°
2026-04-25 03:52 33.07456 -116.99487 19280 ft 446 kts 79°
2026-04-25 03:52 33.08043 -116.95833 19852 ft 451 kts 78°
2026-04-25 03:52 33.08653 -116.92144 20460 ft 455 kts 78°
2026-04-25 03:53 33.09256 -116.88462 21022 ft 460 kts 78°
2026-04-25 03:53 33.09859 -116.84698 21630 ft 463 kts 79°
2026-04-25 03:53 33.10468 -116.80894 22159 ft 469 kts 78°
2026-04-25 03:53 33.11089 -116.77054 22667 ft 473 kts 78°
2026-04-25 03:54 33.11717 -116.73177 23200 ft 478 kts 78°
2026-04-25 03:54 33.12344 -116.69263 23741 ft 482 kts 79°
2026-04-25 03:54 33.12973 -116.65316 24255 ft 487 kts 79°
2026-04-25 03:54 33.13610 -116.61331 24790 ft 491 kts 79°
2026-04-25 03:55 33.14290 -116.57319 25241 ft 496 kts 76°
2026-04-25 03:55 33.15087 -116.53344 25662 ft 500 kts 76°
2026-04-25 03:55 33.15907 -116.49294 26205 ft 503 kts 76°
2026-04-25 03:55 33.16714 -116.45209 26645 ft 508 kts 76°
2026-04-25 03:56 33.17518 -116.41086 27091 ft 511 kts 76°
2026-04-25 03:56 33.18337 -116.36943 27548 ft 515 kts 76°
2026-04-25 03:56 33.19170 -116.32759 27972 ft 519 kts 76°
2026-04-25 03:56 33.20001 -116.28545 28387 ft 523 kts 76°
2026-04-25 03:57 33.20818 -116.24355 28799 ft 527 kts 76°
2026-04-25 03:57 33.21653 -116.20082 29188 ft 530 kts 76°
2026-04-25 03:57 33.22499 -116.15779 29590 ft 534 kts 76°
2026-04-25 03:57 33.23346 -116.11453 29983 ft 537 kts 76°
2026-04-25 03:58 33.24194 -116.07091 30338 ft 541 kts 76°
2026-04-25 03:58 33.25049 -116.02686 30653 ft 546 kts 76°
2026-04-25 03:58 33.25911 -115.98259 31062 ft 548 kts 76°
2026-04-25 03:58 33.26773 -115.93812 31526 ft 549 kts 76°
2026-04-25 03:59 33.27630 -115.89353 31966 ft 552 kts 76°
2026-04-25 03:59 33.28498 -115.84862 32426 ft 554 kts 76°
2026-04-25 03:59 33.29366 -115.80367 32865 ft 555 kts 76°
2026-04-25 03:59 33.30230 -115.75858 33224 ft 557 kts 76°
2026-04-25 04:00 33.31096 -115.71337 33642 ft 559 kts 76°
2026-04-25 04:00 33.31964 -115.66794 34130 ft 563 kts 76°
2026-04-25 04:00 33.32827 -115.62292 34636 ft 562 kts 76°
2026-04-25 04:00 33.33693 -115.57730 35184 ft 563 kts 76°
2026-04-25 04:01 33.34566 -115.53164 35756 ft 563 kts 76°
2026-04-25 04:01 33.35436 -115.48601 36331 ft 562 kts 76°
2026-04-25 04:01 33.36288 -115.44038 36778 ft 562 kts 76°
2026-04-25 04:01 33.37143 -115.39498 37283 ft 558 kts 76°
2026-04-25 04:02 33.38007 -115.34980 37882 ft 554 kts 76°
2026-04-25 04:02 33.38861 -115.30478 38240 ft 555 kts 76°
2026-04-25 04:02 33.39702 -115.25962 38557 ft 556 kts 76°
2026-04-25 04:02 33.40543 -115.21435 38800 ft 557 kts 76°
2026-04-25 04:03 33.42264 -115.12273 38774 ft 577 kts 76°
2026-04-25 04:03 33.44035 -115.02743 38791 ft 595 kts 76°
2026-04-25 04:04 33.45838 -114.92960 38781 ft 607 kts 76°
2026-04-25 04:04 33.47678 -114.83010 38799 ft 615 kts 76°
2026-04-25 04:05 33.49513 -114.72964 38797 ft 618 kts 76°
2026-04-25 04:05 33.51342 -114.62957 38794 ft 618 kts 76°
2026-04-25 04:06 33.53170 -114.52890 38794 ft 618 kts 76°
2026-04-25 04:06 33.54992 -114.42803 38796 ft 618 kts 76°
2026-04-25 04:07 33.56802 -114.32725 38782 ft 618 kts 76°
2026-04-25 04:07 33.58591 -114.22717 38792 ft 617 kts 76°
2026-04-25 04:08 33.60391 -114.12637 38795 ft 617 kts 76°
2026-04-25 04:08 33.62170 -114.02573 38793 ft 617 kts 77°
2026-04-25 04:09 33.63950 -113.92476 38797 ft 617 kts 77°
2026-04-25 04:09 33.65931 -113.82468 38803 ft 615 kts 72°
2026-04-25 04:10 33.68394 -113.72685 38820 ft 615 kts 71°
2026-04-25 04:10 33.70734 -113.62781 38826 ft 616 kts 72°
2026-04-25 04:11 33.74344 -113.47979 38818 ft 615 kts 72°
2026-04-25 04:12 33.76680 -113.38076 38826 ft 616 kts 71°
2026-04-25 04:12 33.79057 -113.28255 38838 ft 615 kts 72°
2026-04-25 04:13 33.81392 -113.18339 38842 ft 614 kts 71°
2026-04-25 04:13 33.83752 -113.08447 38844 ft 614 kts 71°
2026-04-25 04:14 33.86059 -112.98647 38843 ft 612 kts 72°
2026-04-25 04:14 33.88381 -112.88769 38858 ft 613 kts 71°
2026-04-25 04:15 33.90694 -112.78897 38860 ft 613 kts 71°
2026-04-25 04:15 33.92999 -112.69012 38865 ft 612 kts 71°
2026-04-25 04:16 33.95280 -112.59202 38838 ft 612 kts 71°
2026-04-25 04:16 33.97560 -112.49339 38848 ft 611 kts 72°
2026-04-25 04:17 33.99833 -112.39484 38845 ft 610 kts 71°
2026-04-25 04:17 34.02093 -112.29641 38857 ft 610 kts 72°
2026-04-25 04:18 34.04346 -112.19790 38849 ft 609 kts 72°
2026-04-25 04:18 34.06594 -112.09920 38854 ft 610 kts 72°
2026-04-25 04:19 34.08828 -112.00052 38871 ft 609 kts 72°
2026-04-25 04:19 34.11065 -111.90183 38885 ft 610 kts 72°
2026-04-25 04:20 34.13271 -111.80359 38896 ft 609 kts 72°
2026-04-25 04:20 34.15483 -111.70490 38941 ft 609 kts 72°
2026-04-25 04:21 34.17691 -111.60605 38962 ft 609 kts 72°
2026-04-25 04:21 34.19892 -111.50687 38984 ft 608 kts 72°
2026-04-25 04:22 34.22074 -111.40843 38997 ft 608 kts 72°
2026-04-25 04:22 34.24247 -111.30971 38999 ft 607 kts 72°
2026-04-25 04:23 34.26415 -111.21106 39004 ft 607 kts 72°
2026-04-25 04:23 34.28558 -111.11294 39001 ft 606 kts 73°
2026-04-25 04:24 34.30700 -111.01444 39000 ft 606 kts 73°
2026-04-25 04:24 34.32845 -110.91584 38996 ft 606 kts 73°
2026-04-25 04:25 34.34965 -110.81727 39006 ft 605 kts 73°
2026-04-25 04:25 34.37792 -110.72191 39032 ft 600 kts 63°
2026-04-25 04:26 34.40954 -110.62892 39035 ft 602 kts 65°
2026-04-25 04:26 34.43951 -110.53424 39037 ft 601 kts 64°
2026-04-25 04:27 34.47090 -110.44036 39025 ft 601 kts 65°
2026-04-25 04:27 34.50108 -110.34559 39020 ft 601 kts 65°
2026-04-25 04:28 34.53202 -110.25144 39018 ft 601 kts 64°
2026-04-25 04:28 34.56232 -110.15668 39031 ft 601 kts 65°
2026-04-25 04:29 34.59267 -110.06291 39036 ft 600 kts 65°
2026-04-25 04:29 34.62294 -109.96831 39037 ft 601 kts 65°
2026-04-25 04:30 34.65316 -109.87391 39029 ft 599 kts 65°
2026-04-25 04:30 34.68329 -109.77951 39013 ft 598 kts 65°
2026-04-25 04:31 34.71327 -109.68499 39011 ft 599 kts 65°
2026-04-25 04:31 34.74335 -109.59034 39005 ft 599 kts 65°
2026-04-25 04:32 34.77291 -109.49645 39016 ft 598 kts 65°
2026-04-25 04:32 34.80273 -109.40196 39015 ft 597 kts 65°
2026-04-25 04:33 34.83236 -109.30740 39011 ft 597 kts 65°
2026-04-25 04:33 34.86202 -109.21269 39004 ft 596 kts 65°
2026-04-25 04:34 34.89125 -109.11892 39008 ft 596 kts 66°
2026-04-25 04:34 34.92061 -109.02451 39010 ft 596 kts 66°
2026-04-25 04:35 34.94991 -108.92995 39011 ft 595 kts 66°
2026-04-25 04:35 34.97911 -108.83542 39012 ft 595 kts 66°
2026-04-25 04:36 35.00825 -108.74078 39015 ft 595 kts 66°
2026-04-25 04:36 35.03239 -108.66215 39019 ft 595 kts 66°
2026-04-25 04:37 35.06136 -108.56748 39021 ft 595 kts 66°
2026-04-25 04:37 35.09025 -108.47277 39012 ft 594 kts 66°
2026-04-25 04:38 35.11908 -108.37797 39017 ft 594 kts 66°
2026-04-25 04:38 35.14782 -108.28312 39017 ft 595 kts 66°
2026-04-25 04:39 35.17655 -108.18824 39025 ft 594 kts 66°
2026-04-25 04:39 35.20492 -108.09376 39029 ft 593 kts 67°
2026-04-25 04:40 35.23347 -107.99881 39041 ft 594 kts 67°
2026-04-25 04:40 35.26181 -107.90391 39044 ft 592 kts 67°
2026-04-25 04:41 35.29010 -107.80922 39043 ft 592 kts 67°
2026-04-25 04:41 35.31809 -107.71483 39026 ft 593 kts 67°
2026-04-25 04:42 35.34628 -107.61970 39031 ft 593 kts 67°
2026-04-25 04:42 35.37436 -107.52458 39023 ft 593 kts 67°
2026-04-25 04:43 35.40215 -107.43005 39018 ft 592 kts 67°
2026-04-25 04:43 35.43080 -107.33515 38992 ft 591 kts 65°
2026-04-25 04:44 35.46198 -107.24191 38994 ft 590 kts 64°
2026-04-25 04:44 35.49263 -107.14838 38997 ft 589 kts 65°
2026-04-25 04:45 35.52334 -107.05547 38983 ft 591 kts 65°
2026-04-25 04:45 35.55396 -106.96187 38982 ft 590 kts 65°
2026-04-25 04:46 35.58460 -106.86831 38979 ft 589 kts 65°
2026-04-25 04:46 35.61486 -106.77536 38973 ft 590 kts 65°
2026-04-25 04:47 35.64534 -106.68175 38967 ft 589 kts 65°
2026-04-25 04:47 35.67568 -106.58798 38971 ft 589 kts 65°
2026-04-25 04:48 35.70597 -106.49419 38972 ft 589 kts 65°
2026-04-25 04:48 35.73617 -106.40043 38976 ft 589 kts 65°
2026-04-25 04:49 35.76609 -106.30718 38974 ft 589 kts 65°
2026-04-25 04:49 35.79614 -106.21322 38979 ft 589 kts 65°
2026-04-25 04:50 35.82615 -106.11915 38981 ft 589 kts 65°
2026-04-25 04:50 35.85608 -106.02495 38974 ft 589 kts 65°
2026-04-25 04:51 35.88572 -105.93143 38962 ft 589 kts 65°
2026-04-25 04:51 35.91548 -105.83716 38954 ft 589 kts 65°
2026-04-25 04:52 35.94521 -105.74281 38959 ft 589 kts 65°
2026-04-25 04:52 35.97476 -105.64848 38976 ft 589 kts 65°
2026-04-25 04:53 36.00413 -105.55471 38973 ft 589 kts 65°
2026-04-25 04:53 36.03352 -105.46032 38989 ft 588 kts 65°
2026-04-25 04:54 36.06289 -105.36592 38993 ft 588 kts 65°
2026-04-25 04:54 36.09216 -105.27131 38987 ft 589 kts 66°
2026-04-25 04:55 36.12141 -105.17663 38996 ft 589 kts 66°
2026-04-25 04:55 36.15054 -105.08192 38995 ft 589 kts 66°
2026-04-25 04:56 36.17966 -104.98699 38992 ft 589 kts 66°
2026-04-25 04:56 36.20849 -104.89268 38985 ft 589 kts 66°
2026-04-25 04:57 36.23745 -104.79759 38973 ft 590 kts 66°
2026-04-25 04:57 36.26639 -104.70231 38966 ft 590 kts 66°
2026-04-25 04:58 36.29522 -104.60701 38954 ft 591 kts 66°
2026-04-25 04:58 36.32402 -104.51151 38940 ft 590 kts 66°
2026-04-25 04:59 36.35276 -104.41591 38895 ft 592 kts 66°
2026-04-25 04:59 36.38127 -104.32074 38897 ft 592 kts 66°
2026-04-25 05:00 36.40989 -104.22486 38898 ft 593 kts 67°
2026-04-25 05:00 36.43847 -104.12879 38900 ft 593 kts 67°
2026-04-25 05:01 36.46698 -104.03260 38904 ft 592 kts 67°
2026-04-25 05:01 36.49546 -103.93634 38904 ft 592 kts 67°
2026-04-25 05:02 36.52372 -103.84027 38901 ft 592 kts 67°
2026-04-25 05:02 36.55180 -103.74463 38893 ft 591 kts 67°
2026-04-25 05:03 36.57986 -103.64862 38891 ft 590 kts 67°
2026-04-25 05:03 36.60792 -103.55240 38873 ft 590 kts 67°
2026-04-25 05:04 36.63581 -103.45633 38879 ft 589 kts 68°
2026-04-25 05:04 36.66341 -103.36097 38854 ft 588 kts 67°
2026-04-25 05:05 36.69104 -103.26509 38860 ft 588 kts 68°
2026-04-25 05:05 36.71866 -103.16907 38858 ft 588 kts 68°
2026-04-25 05:06 36.74357 -103.07194 38835 ft 589 kts 76°
2026-04-25 05:06 36.75772 -102.97185 38846 ft 590 kts 79°
2026-04-25 05:07 36.77347 -102.87154 38852 ft 588 kts 76°
2026-04-25 05:07 36.78848 -102.77094 38850 ft 588 kts 79°
2026-04-25 05:08 36.80337 -102.67102 38833 ft 588 kts 77°
2026-04-25 05:08 36.81855 -102.57049 38834 ft 588 kts 78°
2026-04-25 05:09 36.83318 -102.47011 38838 ft 587 kts 78°
2026-04-25 05:09 36.84817 -102.36974 38836 ft 588 kts 78°
2026-04-25 05:10 36.86256 -102.26999 38834 ft 587 kts 78°
2026-04-25 05:10 36.87732 -102.16968 38838 ft 586 kts 78°
2026-04-25 05:11 36.89168 -102.06925 38839 ft 586 kts 78°
2026-04-25 05:11 36.90618 -101.96902 38843 ft 586 kts 78°
2026-04-25 05:12 36.92752 -101.81893 38843 ft 584 kts 78°
2026-04-25 05:12 36.94165 -101.71902 38844 ft 583 kts 78°
2026-04-25 05:13 36.95569 -101.61902 38838 ft 583 kts 78°
2026-04-25 05:13 36.96953 -101.51975 38830 ft 583 kts 78°
2026-04-25 05:14 36.98341 -101.41985 38832 ft 583 kts 78°
2026-04-25 05:15 37.00406 -101.26975 38827 ft 583 kts 79°
2026-04-25 05:15 37.01770 -101.16975 38831 ft 583 kts 79°
2026-04-25 05:16 37.03127 -101.06972 38834 ft 583 kts 79°